Location: Murdochville
(48.9591°N, 65.4950°W)
Time: 01:26:11
(UTC-04:00)

ACS3 Solar Sail - Visible Passes

Search period start: 19 April 2026 00:00
Search period end: 29 April 2026 00:00
Orbit: 872 x 974 km, 97.2° (Epoch: 18 April)

Date Brightness Start Highest point End Pass type
(mag) Time Alt. Az. Time Alt. Az. Time Alt. Az.
19 Apr 3.5 00:11:49 10° NE 00:16:05 20° E 00:16:31 19° E visible
19 Apr 1.6 01:53:06 10° N 01:59:08 80° WNW 02:00:03 65° SW visible
19 Apr 3.5 03:36:55 10° NNW 03:40:38 17° NW 03:43:36 12° W visible
20 Apr 3.3 00:20:51 10° NE 00:25:35 23° E 00:26:05 23° E visible
20 Apr 1.8 02:02:28 10° N 02:08:28 68° WNW 02:09:37 56° SW visible
20 Apr 3.7 03:46:39 10° NNW 03:49:48 15° NW 03:52:59 10° W visible
21 Apr 3.0 00:29:54 10° NNE 00:35:00 28° E 00:35:34 27° E visible
21 Apr 1.9 02:11:48 10° N 02:17:43 58° WNW 02:19:06 47° WSW visible
21 Apr 3.8 03:56:26 10° NNW 03:58:54 13° NW 04:01:22 10° WNW visible
22 Apr 2.8 00:38:55 10° NNE 00:44:20 32° E 00:45:00 32° ESE visible
22 Apr 2.2 02:21:04 10° N 02:26:53 50° WNW 02:28:31 40° WSW visible
22 Apr 3.8 04:06:30 10° NW 04:07:54 11° NW 04:09:18 10° WNW visible
23 Apr 2.6 00:47:56 10° NNE 00:53:34 38° E 00:54:21 37° ESE visible
23 Apr 2.4 02:30:19 10° N 02:35:58 43° WNW 02:37:53 33° WSW visible
24 Apr 2.3 00:56:55 10° NNE 01:02:44 45° E 01:03:38 42° ESE visible
24 Apr 2.6 02:39:30 10° N 02:44:58 37° WNW 02:47:09 28° WSW visible
25 Apr 2.1 01:05:52 10° NNE 01:11:48 53° E 01:12:51 48° SE visible
25 Apr 2.8 02:48:39 10° N 02:53:54 32° WNW 02:56:22 24° WSW visible
25 Apr 4.0 23:35:55 10° ENE 23:37:15 11° E 23:38:30 10° E visible
26 Apr 1.9 01:14:45 10° NNE 01:20:48 62° E 01:22:00 52° SE visible
26 Apr 3.0 02:57:45 10° N 03:02:45 28° WNW 03:05:31 20° W visible
26 Apr 3.8 23:43:35 10° NE 23:46:19 13° E 23:47:35 12° E visible
27 Apr 1.8 01:23:37 10° NNE 01:29:43 73° E 01:31:05 54° SSE visible
27 Apr 3.2 03:06:48 10° N 03:11:30 24° WNW 03:14:35 16° W visible
27 Apr 3.7 23:51:46 10° NE 23:55:20 16° E 23:56:35 15° E visible
28 Apr 1.7 01:32:25 10° NNE 01:38:33 84° ESE 01:40:05 54° S visible
28 Apr 3.3 03:15:50 10° NNW 03:20:12 21° WNW 03:23:35 13° W visible
